When you browse on this site, cookies collect data to enhance your experience and personalize the content and advertising you see.
Visit our Privacy Policy to learn more. By continuing to use the site, you agree to this use of cookies and data.
  • En España
  • Lista de países
  • Para 7 días
  • Temperatura del agua
  • Mapa Satelital
  • El tiempo en el mapa
  • Informadores
  • user-avatar
    Iniciar sesión

    Tiempo cada hora Kruhle

    Hoy, 20 Marzo, Miércoles

    Tiempo Temperatura Precipitaciones Viento Presión Humedad
    00:00 +3°C° 0 mm 3 mps 752 mmHg 83%
    01:00 +4°C° 0 mm 2 mps 752 mmHg 84%
    02:00 +3°C° 0 mm 2 mps 752 mmHg 86%
    03:00 +3°C° 0 mm 2 mps 752 mmHg 87%
    04:00 +3°C° 0 mm 2 mps 752 mmHg 88%
    05:00 +3°C° 0 mm 2 mps 752 mmHg 89%
    06:00 +3°C° 0 mm 2 mps 752 mmHg 87%
    07:00 +4°C° 0 mm 2 mps 752 mmHg 85%
    08:00 +5°C° 0 mm 2 mps 752 mmHg 83%
    09:00 +6°C° 0 mm 2 mps 752 mmHg 78%
    10:00 +8°C° 0 mm 2 mps 752 mmHg 73%
    11:00 +9°C° 0 mm 3 mps 752 mmHg 68%
    12:00 +9°C° 0 mm 3 mps 752 mmHg 66%
    13:00 +10°C° 0 mm 3 mps 752 mmHg 64%
    14:00 +11°C° 0 mm 3 mps 752 mmHg 62%
    15:00 +10°C° 0 mm 3 mps 752 mmHg 68%
    16:00 +9°C° 0 mm 3 mps 752 mmHg 75%
    17:00 +7°C° 0 mm 4 mps 752 mmHg 81%
    18:00 +6°C° 0.2 mm 4 mps 752 mmHg 83%
    19:00 +5°C° 0.2 mm 4 mps 752 mmHg 84%
    20:00 +4°C° 0.2 mm 4 mps 752 mmHg 85%
    21:00 +4°C° 0.2 mm 3 mps 752 mmHg 85%
    22:00 +3°C° 0.2 mm 3 mps 752 mmHg 84%
    23:00 +3°C° 0.2 mm 3 mps 752 mmHg 84%

    Mañana, 21 Marzo, Jueves

    Tiempo Temperatura Precipitaciones Viento Presión Humedad
    00:00 +4°C° 0 mm 2 mps 752 mmHg 85%
    01:00 +3°C° 0 mm 2 mps 752 mmHg 86%
    02:00 +3°C° 0 mm 2 mps 752 mmHg 87%
    03:00 +2°C° 0 mm 2 mps 752 mmHg 88%
    04:00 +1°C° 0 mm 2 mps 752 mmHg 88%
    05:00 +1°C° 0 mm 2 mps 752 mmHg 88%
    06:00 +1°C° 0 mm 2 mps 752 mmHg 83%
    07:00 +1°C° 0 mm 3 mps 752 mmHg 77%
    08:00 +2°C° 0 mm 3 mps 752 mmHg 72%
    09:00 +3°C° 0 mm 4 mps 752 mmHg 67%
    10:00 +4°C° 0 mm 4 mps 752 mmHg 62%
    11:00 +5°C° 0 mm 5 mps 751 mmHg 57%
    12:00 +5°C° 0 mm 5 mps 751 mmHg 56%
    13:00 +5°C° 0 mm 5 mps 750 mmHg 54%
    14:00 +5°C° 0 mm 5 mps 750 mmHg 53%
    15:00 +4°C° 0 mm 6 mps 750 mmHg 57%
    16:00 +4°C° 0 mm 6 mps 750 mmHg 61%
    17:00 +3°C° 0 mm 6 mps 750 mmHg 65%
    18:00 +3°C° 0 mm 5 mps 750 mmHg 69%
    19:00 +2°C° 0 mm 5 mps 750 mmHg 72%
    20:00 +1°C° 0 mm 4 mps 750 mmHg 76%
    21:00 +1°C° 0 mm 4 mps 750 mmHg 77%
    22:00 +1°C° 0 mm 5 mps 750 mmHg 77%
    23:00 +1°C° 0 mm 5 mps 750 mmHg 78%

    Pasado mañana, 22 Marzo, Viernes

    Tiempo Temperatura Precipitaciones Viento Presión Humedad
    00:00 0°C° 0 mm 4 mps 750 mmHg 81%
    01:00 -1°C° 0 mm 4 mps 750 mmHg 84%
    02:00 -1°C° 0 mm 4 mps 750 mmHg 87%
    03:00 -2°C° 0 mm 4 mps 750 mmHg 87%
    04:00 -2°C° 0 mm 4 mps 750 mmHg 86%
    05:00 -2°C° 0 mm 4 mps 750 mmHg 85%
    06:00 0°C° 0 mm 3 mps 751 mmHg 80%
    07:00 +1°C° 0 mm 3 mps 751 mmHg 75%
    08:00 +2°C° 0 mm 3 mps 751 mmHg 70%
    09:00 +4°C° 0 mm 3 mps 751 mmHg 68%
    10:00 +5°C° 0 mm 4 mps 750 mmHg 65%
    11:00 +6°C° 0 mm 4 mps 750 mmHg 63%
    12:00 +7°C° 0 mm 4 mps 750 mmHg 61%
    13:00 +7°C° 0 mm 4 mps 749 mmHg 59%
    14:00 +8°C° 0 mm 5 mps 749 mmHg 57%
    15:00 +7°C° 0.3 mm 5 mps 748 mmHg 65%
    16:00 +6°C° 0.3 mm 5 mps 748 mmHg 72%
    17:00 +5°C° 0.3 mm 5 mps 747 mmHg 80%
    18:00 +5°C° 0.2 mm 5 mps 747 mmHg 83%
    19:00 +5°C° 0.2 mm 5 mps 747 mmHg 86%
    20:00 +5°C° 0.2 mm 5 mps 748 mmHg 88%
    21:00 +5°C° 0 mm 4 mps 747 mmHg 90%
    22:00 +5°C° 0 mm 4 mps 747 mmHg 92%
    23:00 +4°C° 0 mm 4 mps 747 mmHg 93%

    23 Marzo, Sábado

    Tiempo Temperatura Precipitaciones Viento Presión Humedad
    00:00 +4°C° 0 mm 4 mps 747 mmHg 94%
    01:00 +4°C° 0 mm 4 mps 747 mmHg 94%
    02:00 +4°C° 0 mm 4 mps 747 mmHg 95%
    03:00 +4°C° 0.1 mm 4 mps 747 mmHg 95%
    04:00 +4°C° 0.1 mm 3 mps 747 mmHg 95%
    05:00 +4°C° 0.1 mm 3 mps 747 mmHg 95%
    06:00 +4°C° 0 mm 3 mps 747 mmHg 89%
    07:00 +4°C° 0 mm 4 mps 747 mmHg 82%
    08:00 +5°C° 0 mm 4 mps 747 mmHg 76%
    09:00 +6°C° 0 mm 5 mps 747 mmHg 67%
    10:00 +7°C° 0 mm 5 mps 747 mmHg 57%
    11:00 +8°C° 0 mm 5 mps 747 mmHg 48%
    12:00 +9°C° 0 mm 5 mps 747 mmHg 45%
    13:00 +9°C° 0 mm 5 mps 747 mmHg 42%
    14:00 +10°C° 0 mm 5 mps 747 mmHg 39%
    15:00 +9°C° 0 mm 5 mps 747 mmHg 43%
    16:00 +10°C° 0 mm 4 mps 747 mmHg 47%
    17:00 +9°C° 0 mm 3 mps 747 mmHg 51%
    18:00 +8°C° 0 mm 3 mps 747 mmHg 61%
    19:00 +8°C° 0 mm 3 mps 747 mmHg 70%
    20:00 +7°C° 0 mm 3 mps 747 mmHg 80%
    21:00 +7°C° 0 mm 3 mps 747 mmHg 82%
    22:00 +6°C° 0 mm 4 mps 747 mmHg 85%
    23:00 +6°C° 0 mm 4 mps 746 mmHg 87%

    24 Marzo, Domingo

    Tiempo Temperatura Precipitaciones Viento Presión Humedad
    00:00 +6°C° 0 mm 4 mps 746 mmHg 88%
    01:00 +6°C° 0 mm 5 mps 745 mmHg 89%
    02:00 +6°C° 0 mm 5 mps 745 mmHg 90%
    03:00 +6°C° 0 mm 5 mps 744 mmHg 90%
    04:00 +6°C° 0 mm 5 mps 744 mmHg 90%
    05:00 +5°C° 0 mm 5 mps 743 mmHg 90%
    06:00 +5°C° 0.4 mm 6 mps 743 mmHg 90%
    07:00 +5°C° 0.4 mm 6 mps 743 mmHg 90%
    08:00 +7°C° 0.4 mm 6 mps 743 mmHg 90%
    09:00 +8°C° 0.1 mm 7 mps 743 mmHg 78%
    10:00 +9°C° 0.1 mm 7 mps 743 mmHg 67%
    11:00 +10°C° 0.1 mm 7 mps 744 mmHg 55%
    12:00 +9°C° 0 mm 7 mps 744 mmHg 50%
    13:00 +9°C° 0 mm 7 mps 744 mmHg 46%
    14:00 +9°C° 0 mm 7 mps 744 mmHg 41%
    15:00 +8°C° 0 mm 6 mps 744 mmHg 43%
    16:00 +8°C° 0 mm 5 mps 744 mmHg 44%
    17:00 +7°C° 0 mm 5 mps 744 mmHg 46%
    18:00 +6°C° 0 mm 4 mps 744 mmHg 49%
    19:00 +5°C° 0 mm 4 mps 744 mmHg 53%
    20:00 +4°C° 0 mm 4 mps 745 mmHg 56%
    21:00 +3°C° 0 mm 3 mps 745 mmHg 58%
    22:00 +2°C° 0 mm 3 mps 745 mmHg 60%
    23:00 +2°C° 0 mm 3 mps 745 mmHg 62%

    25 Marzo, Lunes

    Tiempo Temperatura Precipitaciones Viento Presión Humedad
    00:00 +1°C° 0 mm 3 mps 745 mmHg 64%
    01:00 +1°C° 0 mm 3 mps 745 mmHg 67%
    02:00 +1°C° 0 mm 3 mps 745 mmHg 69%
    03:00 0°C° 0 mm 3 mps 745 mmHg 70%
    04:00 +1°C° 0 mm 2 mps 744 mmHg 72%
    05:00 -1°C° 0 mm 2 mps 744 mmHg 73%
    06:00 +1°C° 0 mm 3 mps 744 mmHg 68%
    07:00 +2°C° 0 mm 3 mps 744 mmHg 63%
    08:00 +3°C° 0 mm 3 mps 744 mmHg 58%
    09:00 +4°C° 0 mm 4 mps 744 mmHg 53%
    10:00 +5°C° 0 mm 4 mps 743 mmHg 48%
    11:00 +7°C° 0 mm 5 mps 743 mmHg 43%
    12:00 +7°C° 0 mm 5 mps 742 mmHg 42%
    13:00 +8°C° 0 mm 5 mps 741 mmHg 41%
    14:00 +8°C° 0 mm 5 mps 740 mmHg 39%
    15:00 +8°C° 0 mm 4 mps 740 mmHg 42%
    16:00 +8°C° 0 mm 4 mps 739 mmHg 45%
    17:00 +9°C° 0 mm 3 mps 739 mmHg 48%
    18:00 +8°C° 0 mm 3 mps 739 mmHg 51%
    19:00 +6°C° 0 mm 4 mps 738 mmHg 54%
    20:00 +5°C° 0 mm 4 mps 738 mmHg 58%
    21:00 +5°C° 0 mm 4 mps 738 mmHg 64%
    22:00 +5°C° 0 mm 4 mps 737 mmHg 69%
    23:00 +5°C° 0 mm 5 mps 737 mmHg 75%
    Mostrar más